User: anonymous   Login
Location: Champignolles
(47.0543°N, 4.5663°E)
Time: 09:01:13
(UTC+00:00)
Language:

ISS - Orbit

View from above orbital plane
View from above orbital plane
View from above satellite
View from above satellite

Ground track
Ground track

The orbit data is extracted from the following two-line orbital elements,

1 25544U 98067A   22027.75547926  .00007563  00000-0  14194-3 0  9991
2 25544  51.6451 312.0370 0006903  67.9238  24.2396 15.49669141323407
Epoch (UTC): 27 January 2022 18:07:53
Eccentricity: 0.0006903
inclination: 51.6451°
perigee height: 413 km
apogee height: 422 km
right ascension of ascending node: 312.0370°
argument of perigee: 67.9238°
revolutions per day: 15.49669141
mean anomaly at epoch: 24.2396°
orbit number at epoch: 32340

The dashed part of the orbit path shows where the satellite is in the earth's shadow,  

DLR